[[{"header":{"parameterUnit":"m.s-1","parameterCategory":1,"la1":30.2991,"la2":30.254,"lo1":-89.0895,"lo2":-89.0444,"dy":0.0017,"dx":0.0017,"nx":28,"ny":28,"refTime":"2024-08-25T09:00:00:Z","depth":0,"parameterNumber":2,"parameterNumberName":"U-component_of_WINDS"},"data":[0,0,0,0,0,0,0,0,0,0,0,0,0,0,0,0,0,0,0,0,0,0,0,0,0,0,0,0,0,0,0,0,0,0,0,0,0,0,0,0,0,0,0,0,0,0,0,0,0,0,0,0,0,0,0,0,0,0,-1.7016,-1.7015,0,-1.6971,-1.6971,-1.697,-1.6905,-1.6904,-1.6903,-1.6902,-1.6859,-1.6859,-1.6859,0,0,0,0,0,0,0,0,0,0,0,0,0,-1.7049,-1.7048,-1.7016,-1.7015,-1.7015,-1.6971,-1.6971,-1.697,-1.6905,-1.6904,-1.6903,-1.6901,-1.6859,-1.6859,-1.6859,0,0,0,0,0,0,0,0,0,0,0,0,0,-1.7022,-1.7048,-1.7016,-1.6977,-1.6973,-1.6972,-1.6971,-1.697,-1.6906,-1.6904,-1.6902,-1.6901,-1.6859,-1.6859,-1.6859,-1.6893,0,0,-1.6859,-1.6859,0,0,0,0,0,0,0,0,-1.7024,-1.7021,-1.6983,-1.698,-1.6975,-1.6942,-1.6967,-1.6944,-1.6906,-1.6931,-1.6902,-1.69,-1.6888,-1.6886,-1.6881,-1.6891,-1.6889,-1.6859,-1.6859,-1.6859,-1.6859,0,0,0,0,0,0,0,-1.7026,-1.7023,-1.6998,-1.6983,-1.6978,-1.6963,-1.6958,-1.6962,-1.692,-1.6929,-1.6924,-1.692,-1.6886,-1.6882,-1.688,-1.6888,-1.6859,-1.6859,-1.6859,-1.6859,-1.6928,-1.693,0,0,0,0,0,0,-1.7033,-1.7025,-1.7,-1.6997,-1.6996,-1.6964,-1.6958,-1.6954,-1.692,-1.6913,-1.6921,-1.6917,-1.6883,-1.688,-1.6878,-1.6919,-1.6859,-1.6859,-1.6858,-1.6926,-1.6929,-1.6931,0,0,0,0,0,0,-1.7034,-1.7031,-1.7001,-1.7009,-1.7005,-1.6965,-1.6962,-1.6955,-1.695,-1.6914,-1.6906,-1.6924,-1.6881,-1.6878,-1.6891,-1.6916,-1.6858,-1.6858,-1.6924,-1.6927,-1.693,-1.6998,0,0,0,0,0,0,-1.7035,-1.7032,-1.7043,-1.701,-1.7004,-1.7013,-1.6964,-1.6955,-1.695,-1.6944,-1.6915,-1.6908,-1.688,-1.6891,-1.689,-1.6915,-1.6858,-1.6922,-1.6925,-1.6929,-1.6994,-1.7003,-1.7011,0,0,0,0,0,-1.7036,-1.7064,-1.7044,-1.7041,-1.7017,-1.7015,-1.7012,-1.6977,-1.6952,-1.6964,-1.6942,-1.6909,-1.6913,-1.6893,-1.6892,-1.6917,-1.692,-1.6924,-1.6929,-1.699,-1.7001,-1.7011,0,0,0,0,0,0,-1.7101,-1.7059,-1.7036,-1.7053,-1.7038,-1.7004,-1.7018,-1.699,-1.6982,-1.6977,-1.6935,-1.6929,-1.6948,-1.6933,-1.6911,-1.695,-1.6912,-1.6916,-1.6959,-1.697,-1.6978,-1.6983,-1.6858,0,0,0,0,0,-1.7117,-1.7117,-1.7081,-1.71,-1.7093,-1.7057,-1.7055,-1.7029,-1.7012,-1.7006,-1.6984,-1.697,-1.6968,-1.6967,-1.6963,-1.6991,-1.6986,-1.7008,-1.7017,-1.7024,-1.7029,-1.7047,-1.7057,-1.6945,-1.6945,-1.6945,0,0,-1.715,-1.7127,-1.713,-1.7112,-1.7097,-1.7101,-1.7052,-1.7056,-1.706,-1.7007,-1.7018,-1.7001,-1.6983,-1.7004,-1.7012,-1.6992,-1.7059,-1.7029,-1.7036,-1.7037,-1.7052,-1.7063,-1.7072,-1.6948,-1.6947,-1.6947,0,0,-1.7214,-1.7195,-1.721,-1.7197,-1.7176,-1.7152,-1.7156,-1.7126,-1.7114,-1.7124,-1.7085,-1.7089,-1.7085,-1.7075,-1.707,-1.7133,-1.7104,-1.7132,-1.718,-1.7197,-1.7206,-1.7214,-1.724,-1.7249,-1.7137,-1.7137,-1.7137,0,-1.7258,-1.7261,-1.7222,-1.723,-1.7225,-1.7177,-1.7195,-1.7184,-1.7162,-1.7161,-1.7138,-1.7136,-1.712,-1.714,-1.7156,-1.7152,-1.7157,-1.7136,-1.7208,-1.7215,-1.7222,-1.7246,-1.7256,-1.7141,-1.7141,-1.714,-1.714,0,-1.7319,-1.7321,-1.7336,-1.7318,-1.7314,-1.7326,-1.7292,-1.7293,-1.7269,-1.7249,-1.7262,-1.7241,-1.7234,-1.7236,-1.7212,-1.7255,-1.7243,-1.7215,-1.7177,-1.7237,-1.726,-1.7268,-1.7146,-1.7145,-1.7144,-1.7143,0,0,-1.7421,-1.7382,-1.7389,-1.7382,-1.7356,-1.7358,-1.737,-1.7362,-1.7366,-1.7353,-1.7365,-1.7364,-1.7339,-1.7333,-1.7308,-1.7323,-1.7379,-1.7293,-1.7292,-1.7313,-1.7429,-1.7453,-1.7464,-1.7359,-1.7361,-1.7362,-1.7432,0,-1.7481,-1.7498,-1.7466,-1.7492,-1.7496,-1.7452,-1.7463,-1.745,-1.7431,-1.7433,-1.7413,-1.7416,-1.738,-1.7377,-1.7389,-1.737,-1.7402,-1.7364,-1.7373,-1.7373,-1.7381,-1.7475,-1.7499,-1.7566,-1.744,-1.7441,-1.7442,0,-1.7554,-1.7546,-1.7573,-1.7549,-1.7549,-1.756,-1.7553,-1.7554,-1.7539,-1.7525,-1.752,-1.7491,-1.7503,-1.7465,-1.7484,-1.7459,-1.746,-1.7452,-1.7453,-1.7455,-1.7413,-1.7482,-1.7585,-1.7597,-1.7455,-1.7454,-1.7453,0,-1.7631,-1.7626,-1.7643,-1.7637,-1.7609,-1.7618,-1.7606,-1.759,-1.7589,-1.7583,-1.7583,-1.7578,-1.7577,-1.7576,-1.7547,-1.7521,-1.7571,-1.7529,-1.7563,-1.7564,-1.7577,-1.7577,-1.7685,-1.7573,-1.7573,-1.7573,-1.7573,0,-1.7703,-1.7722,-1.7677,-1.7688,-1.7709,-1.7672,-1.7694,-1.7679,-1.7665,-1.7674,-1.7635,-1.7644,-1.7604,-1.761,-1.7588,-1.761,-1.7608,-1.7599,-1.7594,-1.7605,-1.7606,-1.7607,-1.7603,-1.7575,-1.7575,-1.7574,-1.7574,0,-1.7793,-1.7763,-1.7779,-1.7751,-1.7745,-1.7762,-1.7739,-1.7749,-1.7729,-1.774,-1.7741,-1.771,-1.7715,-1.7686,-1.7686,-1.7671,-1.7705,-1.769,-1.771,-1.7707,-1.7743,-1.7742,-1.7858,-1.7873,-1.7749,-1.775,-1.7751,0,-1.7842,-1.7856,-1.7831,-1.7834,-1.7824,-1.7829,-1.7828,-1.7793,-1.7794,-1.7781,-1.7793,-1.7795,-1.7795,-1.7806,-1.7785,-1.7785,-1.7772,-1.7813,-1.7772,-1.7784,-1.7777,-1.7778,-1.7781,-1.7822,-1.7824,-1.7825,-1.7826,0,-1.7935,-1.7921,-1.792,-1.7917,-1.7917,-1.7913,-1.7905,-1.791,-1.7872,-1.7877,-1.7881,-1.7881,-1.7882,-1.7886,-1.7883,-1.7873,-1.7845,-1.7839,-1.7847,-1.786,-1.7873,-1.787,-1.7737,-1.7837,-1.7836,-1.7835,-1.7834,-1.7834,-1.8008,-1.802,-1.8005,-1.8008,-1.7999,-1.7994,-1.8003,-1.7985,-1.7988,-1.7985,-1.7964,-1.7975,-1.7963,-1.7956,-1.7949,-1.7958,-1.7939,-1.795,-1.7954,-1.7958,-1.7966,-1.7869,-1.7957,-1.7957,-1.7956,-1.7956,-1.7956,0,-1.8102,-1.8091,-1.8093,-1.8085,-1.8089,-1.806,-1.8052,-1.8057,-1.8066,-1.8057,-1.8058,-1.8066,-1.807,-1.805,-1.8052,-1.8063,-1.8051,-1.8066,-1.8066,-1.8065,-1.7981,-1.7975,-1.8076,-1.8076,-1.8076,-1.8076,-1.8076,-1.8076,-1.8152,-1.8172,-1.8156,-1.8172,-1.816,-1.817,-1.8168,-1.8164,-1.8157,-1.8168,-1.8171,-1.8158,-1.8145,-1.8147,-1.8151,-1.8145,-1.8149,-1.8169,-1.816,-1.8082,-1.807,-1.8059,-1.8054,-1.817,-1.817,-1.8243,-1.8244,-1.8245]},{"header":{"parameterUnit":"m.s-1","parameterCategory":1,"la1":30.2991,"la2":30.254,"lo1":-89.0895,"lo2":-89.0444,"dy":0.0017,"dx":0.0017,"nx":28,"ny":28,"refTime":"2024-08-25T09:00:00:Z","depth":0,"parameterNumber":3,"parameterNumberName":"V-component_of_WINDS"},"data":[0,0,0,0,0,0,0,0,0,0,0,0,0,0,0,0,0,0,0,0,0,0,0,0,0,0,0,0,0,0,0,0,0,0,0,0,0,0,0,0,0,0,0,0,0,0,0,0,0,0,0,0,0,0,0,0,0,0,2.4525,2.4525,0,2.4561,2.4562,2.4562,2.4589,2.4589,2.4589,2.459,2.4624,2.4625,2.4625,0,0,0,0,0,0,0,0,0,0,0,0,0,2.4476,2.4476,2.4525,2.4525,2.4526,2.4561,2.4562,2.4562,2.4589,2.4589,2.4589,2.459,2.4624,2.4624,2.4625,0,0,0,0,0,0,0,0,0,0,0,0,0,2.4503,2.4477,2.4525,2.4544,2.4546,2.4561,2.4562,2.4562,2.4589,2.4589,2.459,2.459,2.4623,2.4624,2.4625,2.4624,0,0,2.4628,2.4629,0,0,0,0,0,0,0,0,2.4501,2.4505,2.454,2.4542,2.4545,2.4571,2.4557,2.4583,2.4589,2.4572,2.459,2.459,2.4606,2.4608,2.4614,2.4626,2.4627,2.4629,2.4629,2.463,2.463,0,0,0,0,0,0,0,2.4499,2.4503,2.4539,2.4541,2.4543,2.4549,2.4553,2.4562,2.4586,2.4574,2.4576,2.458,2.4607,2.4613,2.4615,2.4628,2.4629,2.4629,2.463,2.463,2.4639,2.4638,0,0,0,0,0,0,2.4495,2.4502,2.4538,2.454,2.4524,2.455,2.4554,2.4562,2.4586,2.4591,2.458,2.4581,2.4611,2.4614,2.4616,2.4616,2.463,2.4631,2.4631,2.4639,2.4639,2.4638,0,0,0,0,0,0,2.4494,2.4498,2.4537,2.4521,2.4527,2.455,2.4558,2.4563,2.4569,2.4591,2.4595,2.4581,2.4612,2.4615,2.4622,2.4617,2.4631,2.4632,2.4639,2.4639,2.4638,2.4614,0,0,0,0,0,0,2.4492,2.4498,2.4498,2.4521,2.4528,2.4542,2.4558,2.4563,2.4571,2.4573,2.4594,2.4597,2.4612,2.462,2.4623,2.4619,2.4633,2.464,2.4639,2.4639,2.4616,2.4613,2.4611,0,0,0,0,0,2.4491,2.449,2.4498,2.4502,2.4529,2.4542,2.4546,2.4563,2.457,2.457,2.4584,2.4597,2.4617,2.4621,2.4624,2.462,2.464,2.4639,2.4639,2.4617,2.4614,2.4611,0,0,0,0,0,0,2.4465,2.4493,2.4503,2.451,2.4523,2.4547,2.4548,2.4559,2.4571,2.4572,2.4593,2.4597,2.4602,2.4612,2.4615,2.4619,2.463,2.463,2.4613,2.461,2.4607,2.4604,2.4634,0,0,0,0,0,2.446,2.4469,2.4493,2.4497,2.4503,2.4524,2.4531,2.4543,2.4558,2.4563,2.4578,2.4591,2.46,2.4606,2.4616,2.4618,2.4622,2.4616,2.4614,2.4612,2.4611,2.4611,2.4609,2.4635,2.4635,2.4635,0,0,2.445,2.4467,2.4471,2.4492,2.4504,2.4512,2.4529,2.4537,2.4542,2.4564,2.4572,2.4583,2.4598,2.4602,2.4605,2.4611,2.4605,2.4611,2.4609,2.4609,2.461,2.4608,2.4605,2.4635,2.4635,2.4635,0,0,2.4436,2.445,2.4454,2.4466,2.4484,2.4498,2.4498,2.452,2.4528,2.4536,2.4552,2.4559,2.4575,2.4585,2.4592,2.458,2.4591,2.4583,2.457,2.457,2.4568,2.4566,2.456,2.4558,2.4582,2.4582,2.4582,0,2.4421,2.4434,2.4454,2.4461,2.4469,2.449,2.4493,2.4503,2.4523,2.4528,2.4534,2.4554,2.4566,2.4572,2.4569,2.4575,2.4575,2.458,2.4567,2.4565,2.4564,2.4558,2.4556,2.4581,2.4581,2.4581,2.4581,0,2.4414,2.4423,2.4424,2.4443,2.4452,2.4457,2.4476,2.4482,2.4493,2.4506,2.4512,2.4528,2.454,2.4543,2.4554,2.455,2.4553,2.4563,2.4574,2.4559,2.4555,2.4553,2.4579,2.4579,2.458,2.458,0,0,2.4385,2.4415,2.4415,2.4423,2.4444,2.4451,2.4456,2.4469,2.4473,2.4486,2.449,2.4503,2.4511,2.4519,2.4532,2.4532,2.452,2.4542,2.4542,2.4536,2.4515,2.4506,2.4504,2.4528,2.4528,2.4528,2.4513,0,2.4373,2.4385,2.4402,2.4407,2.4415,2.4434,2.4438,2.4451,2.4463,2.447,2.4482,2.4491,2.4503,2.4507,2.4508,2.4521,2.4516,2.4523,2.453,2.453,2.4525,2.4502,2.4493,2.4479,2.4512,2.4511,2.4511,0,2.4361,2.4373,2.4379,2.4398,2.4402,2.4406,2.4418,2.4426,2.444,2.4448,2.4457,2.447,2.4475,2.4486,2.4492,2.4497,2.4501,2.4507,2.4507,2.4508,2.4519,2.45,2.4475,2.4472,2.4509,2.4509,2.4509,0,2.4337,2.4355,2.436,2.4367,2.439,2.4392,2.4402,2.4416,2.4423,2.4433,2.4437,2.4448,2.4454,2.4462,2.4477,2.4484,2.4481,2.4494,2.4487,2.4486,2.4485,2.4484,2.4458,2.4489,2.4489,2.4489,2.4489,0,2.4321,2.4324,2.435,2.4353,2.4356,2.4376,2.4377,2.4389,2.4401,2.4406,2.4423,2.4427,2.4448,2.4454,2.4466,2.4469,2.4471,2.4477,2.448,2.4475,2.4474,2.4477,2.4478,2.4489,2.4489,2.4489,2.4489,0,2.4295,2.4313,2.432,2.4341,2.4346,2.4347,2.4365,2.4368,2.4381,2.4386,2.4389,2.4408,2.4416,2.4432,2.4444,2.4452,2.4451,2.4458,2.4447,2.4448,2.444,2.444,2.4414,2.4411,2.4445,2.4445,2.4444,0,2.4284,2.4286,2.4307,2.4312,2.4321,2.4328,2.4335,2.4354,2.4359,2.4375,2.4376,2.4385,2.4393,2.4404,2.4419,2.4428,2.4433,2.4424,2.4435,2.4429,2.4431,2.4431,2.443,2.4421,2.442,2.442,2.442,0,2.4261,2.4269,2.4278,2.4289,2.4297,2.4307,2.4317,2.432,2.4341,2.4346,2.4355,2.4361,2.4373,2.4382,2.4393,2.4401,2.4413,2.4416,2.4415,2.4409,2.4402,2.4404,2.4438,2.4416,2.4417,2.4417,2.4417,2.4417,2.424,2.4243,2.4258,2.4267,2.4277,2.4286,2.429,2.4303,2.431,2.4322,2.4332,2.4339,2.4352,2.4368,2.4376,2.438,2.4387,2.4385,2.4384,2.4383,2.438,2.4402,2.4383,2.4383,2.4383,2.4383,2.4383,0,2.4217,2.4227,2.4236,2.425,2.4256,2.4268,2.428,2.4285,2.4291,2.4302,2.431,2.4318,2.4326,2.4341,2.435,2.435,2.4356,2.4352,2.4351,2.4353,2.4375,2.4375,2.4347,2.4347,2.4347,2.4347,2.4347,2.4347,2.4206,2.421,2.4219,2.4228,2.4238,2.4246,2.4251,2.4259,2.4268,2.4277,2.4284,2.4294,2.4306,2.4316,2.4323,2.4327,2.4328,2.4322,2.4328,2.4348,2.4351,2.4355,2.4354,2.4323,2.4323,2.4305,2.4305,2.4305]}]]